Elsenborn, Belgium

9:06 AM CEST on July 26, 2017 (GMT +0200)
Elsenborn

Weather History for EBLB - April, 2014

Change the Weather History Date:

Wednesday, April 2, 2014

  Actual Average Record
Temperature  
Mean Temperature 48 °F -  
Max Temperature 65 °F 47 °F 68 °F (2011)
Min Temperature 32 °F 36 °F 21 °F (2012)
Degree Days  
Heating Degree Days 16    
Moisture  
Dew Point 38 °F    
Average Humidity 80    
Maximum Humidity 100    
Minimum Humidity 34    
Precipitation  
Precipitation 0.00 in - - ()
Sea Level Pressure  
Sea Level Pressure 29.79 in    
Wind  
Wind Speed 2 mph ()    
Max Wind Speed 9 mph    
Max Gust Speed -    
Visibility 6.6 miles    
Events      
Averages and records for this station are not official NWS values.
T = Trace of Precipitation, MM = Missing Value Source: Averaged Metar Reports

Daily Weather History Graph

Daily Weather History Graph

Search for Another Location

Airport or City:

Trip Planner

Search our weather history database for the weather conditions in past years. The results will help you decide how hot, cold, wet, or windy it might be!

Date:

Astronomy

Apr. 02, 2014 Rise Set
Actual Time 7:09 AM CEST 8:08 PM CEST
Civil Twilight 6:36 AM CEST 8:42 PM CEST
Nautical Twilight 5:56 AM CEST 9:22 PM CEST
Astronomical Twilight 5:14 AM CEST 10:05 PM CEST
Moon 8:27 AM CEST (4/2) 11:34 PM CEST (4/2)
Length of Visible Light 14h 05m
Length of Day
12h 59m
Waxing Crescent, 8% of the Moon is Illuminated
Apr 2
Waxing Crescent
Apr 7
First Quarter
Apr 15
Full
Apr 22
Last Quarter
Apr 29
New

Hourly Weather History & Observations

Time (CEST) Temp. Windchill Dew Point Humidity Pressure Visibility Wind Dir Wind Speed Gust Speed Precip Events Conditions
12:00 AM 42 °F - 40 °F 88% 29.90 in 3 mi 2.2 mph - -   Mist
12:25 AM 41.0 °F 39.0 °F 39.2 °F 93% 29.86 in 3.1 mi ESE 3.5 mph - N/A   Scattered Clouds
12:39 AM 41.0 °F - 37.4 °F 87% 29.86 in - Variable 2.3 mph - N/A   Partly Cloudy
12:53 AM 39.2 °F - 37.4 °F 93% 29.86 in 3.7 mi Variable 1.2 mph - N/A   Unknown
1:00 AM 39 °F - 37 °F 92% 29.90 in 3 mi 2.2 mph - -  
1:03 AM 39.2 °F - 37.4 °F 93% 29.86 in - Calm Calm - N/A   Unknown
1:05 AM 39.2 °F - 37.4 °F 93% 29.86 in - Calm Calm - N/A   Unknown
1:17 AM 39.2 °F - 37.4 °F 93% 29.86 in - Calm Calm - N/A   Unknown
1:25 AM 39.2 °F - 37.4 °F 93% 29.83 in 3.1 mi Variable 1.2 mph - N/A   Unknown
1:38 AM 37.4 °F - 37.4 °F 100% 29.83 in 2.8 mi Variable 1.2 mph - N/A   Unknown
2:00 AM 38 °F - 37 °F 93% 29.90 in 4 mi 2.2 mph - -  
2:03 AM 37.4 °F - 37.4 °F 100% 29.83 in 3.1 mi Variable 1.2 mph - N/A   Unknown
2:06 AM 37.4 °F - 35.6 °F 93% 29.83 in - Variable 1.2 mph - N/A   Unknown
2:13 AM 39.2 °F - 37.4 °F 93% 29.83 in 1.8 mi Variable 1.2 mph - N/A   Unknown
2:25 AM 37.4 °F - 35.6 °F 93% 29.83 in - Variable 1.2 mph - N/A   Unknown
2:33 AM 37.4 °F - 35.6 °F 93% 29.83 in 1.5 mi Variable 1.2 mph - N/A   Unknown
2:35 AM 37.4 °F - 35.6 °F 93% 29.83 in 0.6 mi Variable 1.2 mph - N/A   Unknown
2:47 AM 37.4 °F - 35.6 °F 93% 29.83 in 1.6 mi Calm Calm - N/A   Unknown
3:00 AM 36 °F - 35 °F 96% 29.91 in 4 mi 2.2 mph - -   Mist
3:03 AM 37.4 °F - 35.6 °F 93% 29.83 in 3.7 mi Variable 1.2 mph - N/A   Unknown
3:07 AM 37.4 °F - 35.6 °F 93% 29.83 in - Variable 2.3 mph - N/A   Unknown
3:25 AM 35.6 °F 32.8 °F 35.6 °F 100% 29.83 in 5.0 mi ESE 3.5 mph - N/A   Unknown
3:33 AM 35.6 °F 32.8 °F 35.6 °F 100% 29.83 in 4.3 mi ESE 3.5 mph - N/A   Unknown
3:51 AM 35.6 °F - 35.6 °F 100% 29.83 in 5.6 mi Variable 2.3 mph - N/A   Unknown
3:55 AM 35.6 °F - 33.8 °F 93% 29.83 in 4.3 mi Variable 1.2 mph - N/A   Unknown
4:20 AM 35.6 °F - 33.8 °F 93% 29.83 in - Variable 2.3 mph - N/A   Unknown
4:25 AM 33.8 °F - 33.8 °F 100% 29.80 in - Variable 1.2 mph - N/A   Unknown
4:50 AM 33.8 °F - 33.8 °F 100% 29.80 in 5.6 mi Variable 1.2 mph - N/A   Unknown
5:00 AM 34 °F - 33 °F 96% 29.89 in 6 mi 2.2 mph - -  
5:03 AM 33.8 °F - 33.8 °F 100% 29.80 in 3.7 mi Variable 1.2 mph - N/A   Unknown
5:24 AM 33.8 °F - 33.8 °F 100% 29.80 in 4.3 mi Variable 1.2 mph - N/A   Clear
5:25 AM 33.8 °F - 33.8 °F 100% 29.80 in 4.3 mi Variable 1.2 mph - N/A   Clear
6:00 AM 34 °F - 33 °F 97% 29.88 in 4 mi 2.2 mph - -  
6:25 AM 33.8 °F 29.6 °F 33.8 °F 100% 29.80 in 4.3 mi ESE 4.6 mph - N/A   Clear
7:00 AM 33 °F - 33 °F 97% 29.88 in 4 mi 2.2 mph - -  
7:21 AM 33.8 °F - 33.8 °F 100% 29.80 in 4.3 mi Variable 1.2 mph - N/A   Clear
7:25 AM 35.6 °F - 33.8 °F 93% 29.80 in 4.3 mi Variable 1.2 mph - N/A   Clear
8:00 AM 33 °F - 33 °F 100% 29.87 in 4 mi 2.2 mph - -  
8:25 AM 39.2 °F - 39.2 °F 100% 29.80 in 4.3 mi Variable 1.2 mph - N/A   Clear
8:36 AM 42.8 °F - 42.8 °F 100% 29.80 in 5.0 mi Variable 1.2 mph - N/A   Mostly Cloudy
9:00 AM 46 °F - 44 °F 89% 29.82 in 6 mi 2.2 mph - -   Clear
10:00 AM 56 °F - 42 °F 48% 29.77 in 6 mi SSE 4.5 mph - -   Clear
10:25 AM 57.2 °F - 41.0 °F 55% 29.77 in 6.2 mi South 8.1 mph - N/A   Mostly Cloudy
11:00 AM 57 °F - 42 °F 47% 29.76 in 12 mi SSE 4.5 mph - -   Clear
11:25 AM 59.0 °F - 42.8 °F 55% 29.77 in 6.2 mi South 8.1 mph - N/A   Mostly Cloudy
12:00 PM 61 °F - 44 °F 43% 29.73 in 12 mi SE 6.7 mph - -   Clear
12:25 PM 60.8 °F - 42.8 °F 52% 29.74 in 6.2 mi SSE 6.9 mph - N/A   Mostly Cloudy
1:00 PM 62 °F - 44 °F 41% 29.71 in 12 mi South 6.7 mph - -   Clear
3:00 PM 63 °F - 45 °F 40% 29.70 in 12 mi South 8.9 mph - -   Clear
3:25 PM 62.6 °F - 44.6 °F 52% 29.71 in 6.2 mi South 9.2 mph - N/A   Mostly Cloudy
4:00 PM 63 °F - 44 °F 39% 29.67 in 19 mi SSW 6.7 mph - -   Scattered Clouds
4:25 PM 62.6 °F - 42.8 °F 48% 29.71 in 6.2 mi South 6.9 mph - N/A   Mostly Cloudy
5:00 PM 64 °F - 42 °F 34% 29.66 in 19 mi South 6.7 mph - -   Scattered Clouds
5:25 PM 64.4 °F - 42.8 °F 45% 29.71 in 6.2 mi SSW 8.1 mph - N/A   Unknown
6:00 PM 64 °F - 43 °F 34% 29.66 in 16 mi South 4.5 mph - -  
6:25 PM 62.6 °F - 42.8 °F 48% 29.71 in 6.2 mi South 5.8 mph - N/A   Unknown
7:00 PM 61 °F - 42 °F 37% 29.67 in 16 mi SSW 6.7 mph - -  
8:00 PM 57 °F - 42 °F 45% 29.68 in 15 mi 2.2 mph - -  
8:25 PM 53.6 °F - 42.8 °F 67% 29.68 in 6.2 mi Variable 2.3 mph - N/A   Mostly Cloudy
9:00 PM 51 °F - 42 °F 63% 29.71 in 14 mi 2.2 mph - -   Mostly Cloudy
9:25 PM 50.0 °F - 41.0 °F 71% 29.71 in 6.2 mi Variable 1.2 mph - N/A   Mostly Cloudy
10:00 PM 47 °F - 42 °F 76% 29.72 in 14 mi 2.2 mph - -   Mostly Cloudy
10:25 PM 44.6 °F - 41.0 °F 87% 29.68 in 6.2 mi Variable 2.3 mph - N/A   Partly Cloudy
11:00 PM 44 °F - 40 °F 83% 29.73 in 14 mi 2.2 mph - -   Scattered Clouds
11:25 PM 42.8 °F - 39.2 °F 87% 29.68 in 6.2 mi Variable 1.2 mph - N/A   Unknown